Tyler, TX

4:45 AM CST on January 22, 2018 (GMT -0600)
Tyler Pounds

Weather History for KTYR - April, 2013

Change the Weather History Date:

Tuesday, April 9, 2013

  Actual Average Record
Temperature  
Mean Temperature 77 °F 62 °F  
Max Temperature 86 °F 73 °F 91 °F (2011)
Min Temperature 67 °F 52 °F 29 °F (1964)
Degree Days  
Heating Degree Days 0 5  
Month to date heating degree days 48 48  
Since 1 July heating degree days 1886 2213  
Cooling Degree Days 12 2  
Month to date cooling degree days 21 13  
Year to date cooling degree days 44 46  
Growing Degree Days 26 (Base 50)    
Moisture  
Dew Point 62 °F    
Average Humidity 65    
Maximum Humidity 87    
Minimum Humidity 42    
Precipitation  
Precipitation T in 0.08 in 2.17 in (2015)
Month to date precipitation 0.45 0.88  
Year to date precipitation 8.80 11.87  
Snow  
Snow 0.00 in - - ()
Month to date snowfall 0.0  
Since 1 July snowfall 1.0  
Snow Depth 0.00 in    
Sea Level Pressure  
Sea Level Pressure 29.74 in    
Wind  
Wind Speed 15 mph (SSE)    
Max Wind Speed 25 mph    
Max Gust Speed 35 mph    
Visibility 10 miles    
Events      
T = Trace of Precipitation, MM = Missing Value Source: NWS Daily Summary

Daily Weather History Graph

Daily Weather History Graph

Search for Another Location

Airport or City:

Trip Planner

Search our weather history database for the weather conditions in past years. The results will help you decide how hot, cold, wet, or windy it might be!

Date:

Astronomy

Apr. 09, 2013 Rise Set
Actual Time 6:59 AM CDT 7:47 PM CDT
Civil Twilight 6:34 AM CDT 8:12 PM CDT
Nautical Twilight 6:05 AM CDT 8:41 PM CDT
Astronomical Twilight 5:34 AM CDT 9:11 PM CDT
Moon 6:21 AM CDT (4/9) 7:23 PM CDT (4/9)
Length of Visible Light 13h 37m
Length of Day
12h 47m
Waning Crescent, 1% of the Moon is Illuminated
Apr 9
Waning Crescent
Apr 10
New
Apr 18
First Quarter
Apr 25
Full
May 2
Last Quarter

Hourly Weather History & Observations

Time (CDT) Temp. Heat Index Dew Point Humidity Pressure Visibility Wind Dir Wind Speed Gust Speed Precip Events Conditions
12:53 AM 66.9 °F - 60.1 °F 79% 29.76 in 10.0 mi SSE 12.7 mph - N/A   Partly Cloudy
1:34 AM 68.0 °F - 60.8 °F 78% 29.78 in 10.0 mi South 11.5 mph - N/A   Overcast
1:53 AM 68.0 °F - 62.1 °F 81% 29.76 in 10.0 mi South 11.5 mph 19.6 mph N/A   Overcast
2:53 AM 69.1 °F - 62.1 °F 78% 29.75 in 10.0 mi SSE 10.4 mph - N/A   Overcast
3:53 AM 69.1 °F - 62.1 °F 78% 29.74 in 10.0 mi South 11.5 mph - N/A   Overcast
4:53 AM 70.0 °F - 63.0 °F 78% 29.74 in 10.0 mi South 13.8 mph 19.6 mph N/A   Overcast
5:42 AM 69.8 °F - 62.6 °F 78% 29.77 in 10.0 mi South 17.3 mph 20.7 mph N/A   Overcast
5:53 AM 69.1 °F - 62.1 °F 78% 29.75 in 10.0 mi South 13.8 mph - N/A   Overcast
6:53 AM 66.9 °F - 61.0 °F 81% 29.75 in 10.0 mi South 13.8 mph - N/A   Partly Cloudy
7:53 AM 66.9 °F - 62.1 °F 84% 29.77 in 10.0 mi SSE 10.4 mph - N/A   Partly Cloudy
8:53 AM 70.0 °F - 62.1 °F 76% 29.77 in 10.0 mi SSE 10.4 mph 20.7 mph N/A   Partly Cloudy
9:53 AM 73.0 °F - 61.0 °F 66% 29.77 in 10.0 mi SSE 18.4 mph - N/A   Clear
10:53 AM 77.0 °F - 61.0 °F 58% 29.76 in 10.0 mi South 19.6 mph 27.6 mph N/A   Clear
11:53 AM 80.1 °F 81.1 °F 61.0 °F 52% 29.76 in 10.0 mi SE 20.7 mph 26.5 mph N/A   Clear
12:53 PM 82.0 °F 82.7 °F 61.0 °F 49% 29.75 in 10.0 mi South 16.1 mph 25.3 mph N/A   Clear
1:53 PM 82.9 °F 83.3 °F 61.0 °F 47% 29.72 in 10.0 mi SSE 18.4 mph 27.6 mph N/A   Clear
2:53 PM 86.0 °F 85.7 °F 60.1 °F 41% 29.71 in 10.0 mi SSE 15.0 mph 27.6 mph N/A   Clear
3:53 PM 86.0 °F 85.7 °F 60.1 °F 41% 29.69 in 10.0 mi SSE 18.4 mph 27.6 mph N/A   Clear
4:53 PM 84.0 °F 83.8 °F 59.0 °F 43% 29.68 in 10.0 mi SE 16.1 mph 21.9 mph N/A   Mostly Cloudy
5:53 PM 82.9 °F 83.3 °F 61.0 °F 47% 29.68 in 9.0 mi SSE 13.8 mph - N/A   Overcast
6:53 PM 81.0 °F 82.5 °F 64.0 °F 56% 29.71 in 10.0 mi SSE 13.8 mph - N/A   Overcast
7:53 PM 79.0 °F - 64.9 °F 62% 29.71 in 10.0 mi SSE 18.4 mph 26.5 mph N/A   Overcast
8:53 PM 78.1 °F - 64.9 °F 64% 29.73 in 10.0 mi SSE 18.4 mph 27.6 mph N/A   Overcast
9:53 PM 75.9 °F - 64.9 °F 69% 29.75 in 10.0 mi SSE 16.1 mph 25.3 mph N/A   Mostly Cloudy
10:40 PM 75.2 °F - 66.2 °F 73% 29.78 in 10.0 mi SSE 16.1 mph 25.3 mph N/A   Overcast
10:53 PM 75.0 °F - 66.0 °F 73% 29.78 in 10.0 mi SSE 11.5 mph 23.0 mph N/A   Overcast
11:53 PM 75.0 °F - 66.0 °F 73% 29.78 in 10.0 mi SSE 9.2 mph - N/A   Overcast